Wind_Speed
14 13 13 13 13 14 15 15 14 13 11 9 8 8 7 6 5 6 6 6 5 5 4 5 5 6 6 7 8 9 9 8 7 7 6 5 4 3 3 2 2 2 2 3 3 4 4 4 4
15 15 15 15 14 14 17 16 15 13 11 10 9 9 8 7 7 7 7 7 6 6 5 6 6 7 7 8 9 9 10 10 9 8 8 7 6 5 5 4 4 3 3 4 4 4 4 4 5
17 16 16 16 16 16 18 16 14 13 12 11 10 10 9 9 8 9 8 8 7 7 7 7 8 8 9 9 10 11 11 11 11 10 9 9 8 7 7 6 5 5 5 5 5 5 5 5 5
17 17 17 17 18 19 18 16 14 13 12 11 11 11 11 10 10 10 10 9 8 7 7 7 8 9 10 11 12 12 12 12 12 11 11 10 10 9 8 8 7 7 7 7 7 7 7 7 7
18 18 18 18 19 19 18 16 14 13 12 12 12 12 12 12 12 12 12 11 11 9 8 9 10 11 12 13 14 14 14 14 14 14 13 12 12 11 10 10 9 9 9 9 9 9 9 9 8
19 19 18 19 20 19 18 16 15 14 13 13 13 13 12 12 13 13 13 13 12 11 10 10 11 12 13 15 16 16 16 16 16 16 15 14 13 13 12 12 12 11 11 11 11 10 11 11 10
19 19 20 20 20 20 19 16 16 15 14 14 14 13 13 13 14 14 14 14 13 13 13 12 13 13 15 15 16 17 17 17 17 17 16 16 15 15 14 14 14 13 13 12 12 12 12 12 12
19 20 21 21 21 20 18 16 16 16 15 14 14 15 15 15 15 15 14 14 13 13 13 13 14 14 15 16 17 18 18 17 18 18 18 17 16 16 16 16 15 15 14 14 14 14 13 13 14
18 20 22 22 21 20 18 17 17 16 15 15 15 15 16 16 16 15 14 14 14 13 14 14 14 15 16 17 18 18 19 18 19 20 19 19 19 18 17 17 16 16 16 15 15 15 15 15 15
19 20 22 21 20 19 18 18 17 16 16 16 16 15 16 16 16 16 16 15 14 14 14 13 13 15 16 16 18 18 19 20 21 21 20 20 20 19 19 18 18 17 17 16 16 16 17 17 17
20 21 20 20 19 19 18 18 17 17 17 17 17 18 17 17 16 16 16 15 15 15 14 14 14 14 16 17 18 19 20 22 22 23 22 21 21 20 20 19 19 19 19 18 18 18 18 18 18
20 20 20 19 18 19 19 18 18 18 18 18 18 19 18 18 17 18 18 17 16 16 15 14 15 15 17 19 19 21 20 22 23 23 23 22 22 22 22 22 21 21 20 19 19 19 19 20 20
19 19 19 19 19 19 19 19 19 19 19 19 19 20 19 19 19 19 18 17 16 16 16 16 16 17 18 19 21 22 23 22 23 24 23 23 23 23 23 23 22 22 21 20 20 20 20 20 21
19 18 18 19 19 19 19 19 19 20 19 20 20 20 20 21 20 20 19 19 18 17 16 16 17 18 19 20 21 22 23 24 24 23 23 23 24 24 24 23 24 23 22 21 21 21 22 22 21
18 18 19 19 20 20 20 20 20 20 20 20 20 20 21 21 21 21 20 20 19 18 17 17 17 17 18 20 21 22 23 23 24 24 24 24 24 24 25 25 25 25 24 23 23 23 23 23 23
18 18 19 20 20 20 19 20 21 20 21 21 21 21 21 22 21 21 20 20 20 20 20 19 18 19 20 21 21 21 21 22 24 25 25 25 25 25 25 26 26 26 25 25 24 24 24 24 24
18 18 20 20 20 20 19 21 21 21 21 21 21 21 22 22 21 20 20 20 20 21 21 20 20 20 22 23 23 22 22 22 23 25 25 25 25 25 26 27 27 27 26 26 26 25 26 25 25
18 18 19 19 20 20 20 20 21 21 21 21 20 20 20 20 20 20 20 20 21 21 21 20 19 19 20 21 22 23 23 23 23 23 24 24 25 26 27 27 27 27 27 26 26 26 26 27 27
18 18 18 19 19 19 19 20 20 20 20 20 19 19 19 19 19 20 21 21 21 20 21 20 19 19 19 20 20 22 23 23 22 22 23 23 24 26 27 28 27 28 28 27 27 27 27 28 27
17 17 18 18 18 18 19 19 19 18 19 19 19 19 19 19 19 19 20 21 21 20 19 19 20 19 19 20 21 21 22 23 23 24 24 25 26 26 26 27 28 27 28 27 27 27 28 28 27
16 16 17 18 17 18 18 18 18 17 17 17 17 18 18 18 18 19 19 20 20 20 20 20 20 20 20 20 20 21 22 23 24 25 25 26 26 27 27 27 27 27 27 28 28 28 28 28 28
15 16 16 17 16 16 16 15 16 16 16 16 16 17 17 17 18 18 19 19 20 19 19 20 21 21 21 21 21 22 22 23 24 25 27 27 27 27 27 27 28 28 28 29 29 30 29 29 29
16 16 16 16 16 16 15 14 15 15 16 16 16 17 17 18 18 19 19 20 20 20 20 20 21 21 21 22 23 23 24 24 25 26 27 27 27 27 28 28 29 29 30 30 30 30 30 30 29
15 15 14 14 14 15 15 14 15 15 15 16 17 17 18 19 18 19 20 21 21 21 21 21 22 22 23 24 24 25 25 26 27 27 27 27 28 28 29 29 30 30 30 30 30 30 30 30 29
14 13 13 13 14 15 16 16 16 15 16 17 17 17 18 19 19 20 20 21 22 22 23 23 24 24 24 25 25 27 27 28 28 28 28 29 29 29 29 29 29 29 29 29 29 29 29 29 29
14 14 13 13 13 14 17 17 16 16 17 17 18 18 19 19 20 21 20 21 22 23 23 24 25 25 25 26 26 27 28 28 28 29 29 28 29 29 29 28 28 29 29 29 29 28 28 29 29
14 14 14 14 14 14 16 16 16 16 17 17 17 18 19 20 20 21 22 22 22 23 24 24 25 25 25 26 26 26 27 27 27 28 28 28 28 29 28 28 28 28 29 29 30 29 29 29 29
15 15 15 14 13 14 15 16 16 16 16 17 18 18 18 19 21 22 22 23 24 24 25 25 26 26 26 26 26 26 26 26 27 27 28 28 28 28 28 29 29 29 29 29 30 29 29 29 28
15 15 15 15 15 14 15 16 17 16 15 16 17 18 20 22 23 23 23 23 23 23 24 25 25 25 26 26 26 25 26 26 26 26 27 28 29 29 29 28 28 28 28 28 28 28 28 27 27
14 15 15 15 16 15 15 17 16 16 16 17 18 19 20 21 21 21 22 23 22 23 23 24 24 25 25 25 25 25 25 25 25 25 26 26 26 26 26 26 25 26 26 25 25 24 24 24 24
Wind_Direction
245 244 244 242 243 245 247 254 256 258 260 259 258 255 252 258 260 265 277 278 277 277 274 258 240 236 235 241 247 245 240 238 237 236 235 234 234 239 249 274 294 312 325 333 339 341 349 352 353
243 242 240 239 237 241 248 252 253 257 258 259 257 256 259 264 268 265 275 280 281 275 275 264 260 248 241 243 245 246 244 241 239 239 240 241 242 247 253 264 271 282 291 299 309 317 324 330 333
239 238 237 236 234 232 245 249 252 254 254 257 256 258 263 269 272 274 278 283 288 285 281 273 266 255 247 244 245 247 248 245 243 243 244 245 247 250 255 258 262 268 275 280 286 295 300 304 310
237 236 235 234 235 239 245 248 250 250 252 252 253 259 265 270 274 278 282 289 290 290 283 273 269 262 254 248 246 247 247 247 245 245 247 247 247 250 253 255 256 260 265 271 276 281 286 290 291
235 235 234 234 238 242 245 248 248 246 247 248 254 260 266 271 275 278 286 291 289 289 287 276 270 263 256 251 248 245 245 246 245 245 245 246 246 248 250 250 252 255 259 265 271 276 279 283 284
234 233 232 233 238 242 244 244 244 244 244 248 253 258 265 270 275 281 288 290 290 286 286 278 269 262 258 252 245 244 245 245 244 243 244 245 246 247 249 250 251 254 256 261 267 272 275 277 278
231 230 229 232 237 241 244 243 241 243 243 245 250 258 265 272 278 283 288 290 289 286 281 277 271 265 260 257 253 250 247 246 245 245 245 246 247 249 250 252 253 255 258 261 264 268 272 275 277
229 229 230 232 236 241 244 242 241 241 243 248 251 257 266 273 280 286 287 289 288 286 283 276 274 270 264 259 254 251 251 248 247 246 246 247 248 249 251 254 256 258 260 264 264 267 272 275 277
226 226 228 231 235 241 243 241 242 244 244 248 253 260 268 273 281 287 285 287 285 285 283 276 273 269 261 258 255 253 250 249 249 248 248 248 249 251 253 256 257 261 264 266 265 266 270 275 277
225 225 228 231 235 240 241 242 243 244 246 251 256 262 268 274 280 286 286 286 284 282 279 272 270 266 259 255 255 254 253 252 251 252 253 252 253 254 257 258 260 263 265 266 266 267 270 273 275
225 227 230 231 234 238 241 242 244 244 248 254 260 266 270 276 281 285 285 284 283 281 278 272 267 264 258 257 254 253 256 256 254 255 257 256 255 256 258 259 262 263 263 264 265 267 269 273 274
226 228 231 233 235 236 239 242 245 247 253 259 264 269 274 279 284 286 283 282 281 280 278 271 267 264 261 259 257 256 258 259 256 256 257 257 258 257 256 259 262 263 263 263 265 267 269 271 272
226 229 232 234 236 237 239 243 248 252 256 262 267 271 275 279 282 285 283 280 279 279 276 271 268 266 263 260 259 258 256 256 256 255 254 257 259 259 258 259 260 261 262 264 266 267 270 270 271
226 229 233 235 238 238 240 246 251 255 259 264 269 274 278 280 282 285 286 285 281 280 275 270 268 267 265 262 260 257 257 256 256 254 256 259 261 259 259 260 259 260 262 264 267 269 270 271 271
226 230 234 237 240 241 243 247 252 256 260 266 271 275 278 279 283 285 285 284 283 278 275 271 268 267 267 265 263 261 260 254 253 255 257 260 261 260 260 259 260 262 264 265 267 269 270 270 270
225 229 234 238 240 243 244 248 254 258 263 267 272 276 277 279 281 284 283 282 281 280 278 273 268 267 268 265 264 261 261 257 255 257 258 260 260 260 261 261 261 262 262 265 267 269 270 271 270
225 227 233 240 242 245 246 250 258 261 265 269 272 275 277 278 280 282 282 281 279 278 277 272 269 266 267 267 265 261 260 259 258 257 258 260 260 261 262 262 262 262 263 265 267 269 271 271 272
223 227 236 241 245 247 249 253 259 262 266 269 273 275 275 278 281 280 281 282 280 278 277 273 271 269 268 265 263 260 259 260 259 258 259 261 260 261 262 262 263 264 264 266 267 268 270 271 272
224 229 236 242 246 248 252 254 258 262 265 269 271 274 274 277 281 280 281 280 280 279 277 275 274 272 269 266 263 262 263 263 262 259 259 262 263 264 266 264 264 265 265 266 267 268 269 271 271
224 230 236 241 245 248 252 254 256 259 264 267 269 272 276 278 280 282 282 281 279 280 280 277 276 273 273 270 267 267 266 263 261 261 264 266 268 269 270 268 267 267 265 265 268 269 270 270 269
225 228 235 239 245 248 253 256 258 259 261 265 269 273 277 280 282 281 281 280 280 281 281 280 280 274 272 272 270 270 269 266 264 263 266 268 269 270 269 268 269 270 269 269 270 269 270 270 269
229 233 237 241 244 249 250 252 255 256 258 263 268 274 277 280 282 281 282 283 282 282 282 280 280 276 272 272 271 270 271 270 267 267 267 269 271 270 269 269 270 271 271 272 271 270 269 269 269
227 234 238 242 244 247 251 247 254 257 260 265 269 273 277 279 280 281 281 283 282 281 282 279 278 277 276 274 274 272 271 271 270 270 270 271 272 271 271 272 273 272 272 272 272 270 268 268 268
231 234 239 243 245 249 249 249 256 259 264 269 272 273 276 280 283 284 282 281 281 281 281 281 281 280 278 278 277 276 275 274 273 273 273 273 273 272 272 272 273 273 273 272 271 269 267 267 266
227 230 238 242 245 249 252 253 255 260 264 269 273 274 276 279 285 288 285 283 283 283 283 282 283 282 280 280 280 279 277 276 275 275 275 275 274 273 273 273 273 273 272 272 271 269 268 267 266
228 227 231 238 246 252 257 259 260 263 266 271 274 277 279 281 284 286 287 286 285 284 284 284 283 282 282 282 281 279 277 275 274 275 275 275 275 274 273 273 273 272 271 272 272 270 269 268 267
230 230 231 240 247 252 260 265 266 266 268 273 277 280 282 284 285 287 287 288 286 284 285 285 283 283 283 282 282 281 279 277 276 275 275 275 274 274 274 274 273 273 272 271 272 272 270 269 268
231 236 239 242 250 257 265 271 271 270 272 276 279 280 281 282 284 287 288 288 287 284 284 285 284 283 283 285 284 281 280 279 279 277 276 275 275 274 274 274 273 273 272 272 272 271 270 270 268
232 237 241 245 249 257 265 269 272 276 276 278 281 282 283 285 286 287 287 287 286 286 287 287 285 284 283 284 283 282 282 281 281 281 280 278 277 275 275 274 273 273 273 273 272 271 270 269 267
233 239 244 248 254 258 265 272 274 276 277 280 284 286 287 287 286 287 289 288 288 286 288 287 286 284 283 284 283 283 282 282 283 283 282 281 279 279 277 276 275 274 274 272 272 272 270 268 266
Height
5902 5904 5905 5907 5909 5910 5910 5910 5911 5912 5913 5914 5915 5915 5915 5916 5917 5919 5916 5914 5914 5914 5913 5913 5913 5913 5914 5915 5915 5915 5915 5915 5916 5916 5916 5916 5916 5916 5917 5917 5917 5917 5917 5916 5916 5916 5916 5915 5915
5900 5901 5903 5905 5906 5907 5907 5908 5909 5910 5911 5912 5913 5913 5914 5913 5913 5913 5912 5912 5912 5912 5912 5912 5911 5912 5912 5913 5913 5914 5914 5914 5914 5914 5914 5915 5915 5915 5915 5915 5915 5915 5915 5915 5915 5915 5915 5914 5914
5897 5898 5900 5902 5903 5905 5905 5905 5907 5908 5909 5910 5911 5911 5912 5912 5911 5911 5911 5910 5910 5909 5909 5909 5909 5910 5910 5910 5911 5911 5912 5912 5912 5912 5912 5913 5913 5913 5914 5914 5914 5914 5914 5914 5914 5914 5913 5913 5913
5893 5895 5897 5899 5899 5900 5901 5903 5905 5906 5907 5908 5909 5910 5910 5910 5909 5909 5908 5908 5908 5907 5906 5906 5907 5907 5908 5908 5908 5909 5909 5910 5910 5910 5911 5911 5911 5912 5912 5912 5912 5912 5912 5912 5912 5912 5912 5912 5911
5890 5892 5894 5896 5896 5897 5898 5901 5903 5904 5905 5906 5907 5907 5907 5908 5907 5907 5906 5906 5905 5905 5904 5904 5904 5904 5905 5905 5905 5906 5906 5907 5907 5908 5908 5909 5909 5909 5910 5910 5910 5910 5910 5910 5910 5910 5910 5910 5910
5887 5889 5892 5892 5893 5894 5896 5898 5900 5902 5903 5904 5905 5906 5905 5905 5905 5904 5904 5903 5903 5902 5901 5901 5901 5901 5901 5902 5902 5902 5903 5903 5904 5904 5905 5905 5906 5907 5907 5907 5908 5908 5908 5908 5908 5908 5908 5908 5907
5885 5886 5888 5889 5890 5891 5894 5896 5898 5899 5901 5902 5903 5903 5902 5902 5902 5901 5901 5900 5900 5899 5899 5898 5898 5898 5898 5898 5899 5899 5899 5900 5900 5901 5902 5902 5903 5904 5904 5904 5905 5905 5905 5905 5905 5905 5905 5905 5905
5880 5884 5884 5886 5888 5889 5891 5893 5895 5897 5898 5899 5900 5901 5900 5900 5899 5899 5898 5897 5897 5896 5896 5895 5895 5895 5895 5895 5895 5895 5896 5896 5897 5897 5898 5899 5899 5900 5900 5901 5901 5902 5902 5902 5902 5902 5902 5902 5901
5877 5881 5881 5883 5885 5887 5889 5891 5893 5894 5896 5897 5897 5898 5898 5897 5897 5897 5895 5895 5894 5893 5893 5892 5891 5891 5891 5891 5891 5891 5892 5893 5893 5894 5894 5895 5895 5896 5896 5897 5897 5898 5899 5898 5898 5898 5898 5898 5898
5874 5877 5877 5880 5882 5884 5886 5888 5890 5892 5893 5894 5894 5895 5895 5895 5894 5893 5892 5892 5891 5890 5889 5888 5888 5887 5886 5887 5887 5888 5888 5889 5889 5890 5891 5891 5891 5892 5892 5893 5893 5894 5894 5894 5894 5894 5894 5894 5894
5871 5872 5874 5876 5879 5881 5883 5885 5887 5889 5890 5891 5891 5892 5892 5891 5891 5890 5889 5888 5887 5886 5886 5885 5885 5884 5884 5883 5884 5884 5884 5885 5885 5886 5886 5887 5887 5887 5888 5888 5889 5889 5890 5890 5890 5890 5890 5890 5890
5867 5869 5871 5874 5876 5878 5880 5882 5884 5885 5887 5888 5888 5888 5888 5888 5887 5887 5886 5885 5884 5883 5882 5882 5881 5880 5880 5880 5880 5880 5880 5880 5880 5881 5882 5883 5883 5883 5883 5884 5884 5885 5885 5885 5886 5886 5886 5886 5886
5864 5866 5869 5871 5873 5875 5877 5879 5881 5882 5883 5884 5884 5885 5885 5884 5884 5883 5882 5881 5880 5879 5879 5878 5877 5877 5876 5876 5875 5875 5876 5876 5876 5877 5877 5878 5878 5879 5879 5879 5880 5880 5881 5881 5881 5881 5881 5882 5882
5862 5864 5866 5868 5870 5872 5875 5876 5878 5879 5880 5880 5881 5881 5881 5881 5880 5879 5878 5877 5876 5875 5875 5874 5873 5873 5872 5872 5871 5871 5871 5871 5871 5872 5873 5873 5874 5874 5874 5875 5875 5876 5876 5876 5876 5877 5877 5877 5877
5859 5862 5864 5865 5868 5870 5872 5874 5874 5875 5876 5877 5877 5877 5877 5876 5876 5875 5874 5873 5872 5871 5870 5870 5869 5868 5868 5867 5866 5866 5866 5866 5866 5867 5868 5869 5869 5869 5870 5870 5870 5871 5871 5871 5871 5871 5871 5871 5871
5856 5859 5861 5863 5865 5867 5871 5871 5871 5872 5873 5873 5873 5873 5873 5872 5871 5871 5870 5869 5868 5867 5866 5865 5864 5864 5863 5862 5862 5862 5861 5862 5862 5862 5863 5863 5864 5864 5864 5865 5865 5865 5865 5865 5866 5866 5866 5866 5866
5854 5857 5858 5860 5861 5863 5866 5867 5867 5868 5869 5869 5869 5869 5868 5868 5867 5866 5865 5864 5863 5862 5861 5860 5859 5859 5858 5857 5857 5857 5857 5857 5857 5857 5858 5858 5859 5859 5859 5859 5859 5860 5860 5860 5860 5861 5860 5860 5860
5852 5854 5855 5857 5858 5860 5862 5863 5864 5864 5865 5865 5865 5864 5864 5863 5862 5862 5861 5860 5859 5857 5856 5855 5854 5853 5853 5852 5852 5852 5852 5852 5852 5852 5853 5853 5853 5853 5853 5853 5854 5854 5854 5854 5854 5854 5855 5854 5854
5848 5851 5852 5854 5855 5857 5858 5859 5860 5860 5861 5861 5861 5860 5860 5859 5858 5857 5856 5855 5854 5853 5852 5850 5849 5848 5848 5847 5847 5847 5847 5847 5847 5848 5848 5848 5848 5848 5848 5848 5848 5848 5848 5848 5848 5848 5848 5848 5848
5845 5848 5849 5850 5852 5853 5854 5855 5855 5856 5856 5857 5856 5856 5855 5854 5853 5852 5851 5850 5848 5847 5847 5846 5845 5844 5843 5842 5842 5842 5842 5842 5842 5842 5842 5842 5842 5842 5842 5842 5842 5842 5842 5842 5842 5842 5842 5842 5842
5842 5845 5846 5848 5849 5850 5851 5852 5852 5852 5853 5853 5852 5852 5851 5850 5849 5847 5846 5845 5843 5843 5842 5841 5840 5839 5838 5837 5837 5837 5837 5836 5836 5836 5836 5836 5836 5836 5835 5835 5835 5835 5835 5835 5835 5835 5835 5835 5835
5840 5841 5843 5844 5846 5847 5849 5850 5849 5849 5849 5849 5849 5848 5847 5845 5844 5843 5842 5840 5839 5838 5837 5836 5835 5834 5833 5832 5832 5832 5831 5830 5830 5830 5829 5829 5829 5829 5828 5828 5828 5828 5828 5828 5828 5828 5828 5828 5828
5836 5838 5840 5841 5843 5844 5845 5846 5847 5845 5845 5845 5845 5844 5843 5841 5840 5839 5837 5836 5834 5834 5832 5831 5830 5829 5828 5827 5827 5826 5825 5824 5823 5823 5823 5822 5822 5822 5822 5821 5821 5821 5821 5820 5820 5820 5821 5821 5821
5833 5835 5836 5838 5840 5842 5842 5843 5844 5842 5842 5841 5840 5839 5838 5837 5836 5834 5832 5830 5829 5828 5827 5826 5824 5823 5822 5821 5821 5819 5819 5817 5817 5816 5816 5815 5815 5814 5814 5814 5814 5813 5813 5813 5812 5812 5813 5813 5813
5830 5833 5835 5836 5838 5839 5838 5838 5840 5838 5838 5837 5836 5835 5834 5833 5831 5829 5827 5825 5824 5823 5821 5820 5818 5817 5816 5815 5813 5812 5811 5810 5809 5809 5808 5808 5807 5807 5807 5806 5806 5805 5805 5805 5804 5805 5805 5805 5805
5827 5830 5834 5835 5836 5836 5834 5834 5835 5834 5833 5832 5831 5830 5829 5828 5826 5824 5822 5820 5819 5817 5815 5814 5812 5810 5809 5807 5806 5805 5803 5802 5802 5801 5801 5800 5800 5799 5799 5798 5798 5798 5798 5797 5797 5797 5797 5797 5797
5824 5826 5829 5830 5831 5832 5831 5830 5830 5829 5828 5828 5826 5825 5824 5823 5821 5819 5817 5815 5813 5811 5809 5807 5805 5803 5802 5800 5799 5797 5796 5795 5794 5793 5793 5792 5792 5791 5790 5790 5790 5789 5789 5789 5789 5789 5789 5789 5789
5821 5823 5824 5826 5827 5828 5828 5827 5826 5824 5824 5823 5822 5821 5819 5818 5815 5813 5811 5809 5807 5805 5803 5800 5798 5796 5795 5793 5792 5790 5788 5787 5787 5786 5785 5784 5783 5783 5782 5782 5782 5781 5781 5781 5781 5781 5781 5781 5781
5818 5819 5820 5822 5823 5824 5824 5825 5821 5820 5820 5819 5817 5816 5814 5812 5810 5808 5805 5803 5801 5798 5796 5793 5791 5789 5788 5786 5785 5783 5781 5780 5779 5778 5777 5776 5775 5775 5774 5774 5774 5773 5773 5773 5773 5773 5773 5773 5773
5814 5816 5817 5818 5819 5819 5819 5821 5816 5816 5815 5814 5812 5811 5808 5806 5804 5802 5800 5797 5795 5792 5789 5785 5784 5783 5781 5780 5778 5776 5775 5774 5772 5771 5769 5768 5768 5767 5767 5766 5766 5766 5766 5766 5766 5766 5766 5766 5766